Regional Weather Roundup
Issued by NWS

Home | Current Version | Previous Version | Text Only | Print | Product List | Glossary Off
Versions: 1 2 3 4 5 6 7 8 9 10 11 12 13 14 15 16 17 18 19 20 21 22 23 24 25 26 27 28 29 30 31 32 33 34 35 36 37 38 39 40 41 42 43 44 45 46 47 48 49 50

000
ASUS43 KLMK 240610
RWRKY
KENTUCKY REGIONAL WEATHER ROUNDUP
NATIONAL WEATHER SERVICE LOUISVILLE KY
200 AM EDT MON APR 24 2017

NOTE "FAIR" INDICATES FEW OR NO CLOUDS BELOW 12,000 FEET
WITH NO SIGNIFICANT WEATHER AND/OR OBSTRUCTIONS TO VISIBILITY.

KYZ001>023-026-027-061>063-070>075-240700-
WESTERN AND SOUTH CENTRAL KENTUCKY

CITY           SKY/WX    TMP DP  RH WIND       PRES   REMARKS
PADUCAH        CLEAR     50  43  77 W3        29.90F
HENDERSON      PTCLDY    54  39  57 N7        29.91F
OWENSBORO      CLOUDY    60  42  51 NE7       29.89F
HOPKINSVILLE   PTCLDY    51  49  93 N6        29.86F
BOWLING GREEN  CLOUDY    54  50  86 N5        29.87F
GLASGOW        CLOUDY    54  49  81 NE10      29.86F
$$

KYZ024-025-028>034-038-045-046-053-240700-
NORTH CENTRAL KENTUCKY

CITY           SKY/WX    TMP DP  RH WIND       PRES   REMARKS
LOUISVILLE/SDF CLOUDY    59  44  57 N9        29.91F
LOUISVILLE/LOU CLOUDY    59  43  55 N7        29.92F
FORT KNOX      DRIZZLE   54  47  77 N8        29.89F
$$

KYZ035>037-039>044-047>052-055>060-089>105-240700-
NORTHEAST KENTUCKY

CITY           SKY/WX    TMP DP  RH WIND       PRES   REMARKS
LEXINGTON      CLOUDY    55  46  71 NE6       29.91F
COVINGTON      MOCLDY    55  36  48 N10       29.95S
FRANKFORT      CLOUDY    58  44  60 NE6       29.91F
$$

KYZ054-064>069-076>088-106>120-240700-
SOUTHEAST KENTUCKY

CITY           SKY/WX    TMP DP  RH WIND       PRES   REMARKS
JACKSON        CLOUDY    50  49  96 VRB3      29.90S
LONDON         CLOUDY    52  49  89 VRB7      29.87F
SOMERSET       CLOUDY    52  52 100 E7        29.88F
MIDDLESBORO    CLOUDY    54  50  85 SE3       29.85F
MONTICELLO     CLOUDY    53  52  96 N14G23    29.87F
$$




USA.gov is the U.S. government's official web portal to all federal, state and local government web resources and services.